Date String (YYYY-MM-DD hh:mm:ss) UTC,Instrument flags,Ambient pressure (hPa),Sample flow (lpm),Bypass flow (lpm),Sample temperature (°C),Ambient temperature (°C),ASC tube jacket temperature (°C),LED temperature (°C),Box temperature (°C),Sample RH (%),Span deviation,Mass concentration (μg/m³),Mass concentration (μg/m³),Mass concentration (μg/m³)
DateTimeUTC,F1_M11,P_M11,Q1_M11,Q2_M11,T1_M11,T2_M11,T3_M11,T4_M11,T5_M11,U1_M11,ZSPAN_M11,X0_M11,X2_M11,X1_M11
2022-11-22 15:00:00,,0829.7,5.00,0.00,21.9,20.5,00.0,30.9,23.6,07.1,0000.0,0006.13,0002.94,0002.54
2022-11-22 15:01:00,,0829.6,5.00,0.00,21.9,20.5,00.0,30.8,23.5,07.1,0000.0,0006.07,0002.87,0002.49
2022-11-22 15:02:00,,0829.6,5.00,0.00,21.9,20.5,00.0,30.8,23.5,07.0,0000.0,0005.69,0002.83,0002.47
2022-11-22 15:03:00,,0829.6,5.01,0.00,21.9,20.5,00.0,30.8,23.5,07.0,0000.0,0005.33,0002.78,0002.45
2022-11-22 15:04:00,,0829.7,5.01,0.00,21.9,20.5,00.0,30.8,23.6,07.0,0000.0,0005.28,0002.74,0002.42
2022-11-22 15:05:00,,0829.7,5.01,0.00,21.9,20.5,00.0,30.8,23.6,06.9,0000.0,0005.35,0002.75,0002.41
2022-11-22 15:06:00,,0829.7,5.00,0.00,21.9,20.5,00.0,30.8,23.6,06.9,0000.0,0005.37,0002.77,0002.41
2022-11-22 15:07:00,,0829.7,4.99,0.00,21.9,20.8,00.0,30.8,23.7,06.8,0000.0,0005.47,0002.78,0002.42
2022-11-22 15:08:00,,0829.7,5.01,0.00,22.0,22.0,00.0,30.8,24.0,06.9,0000.0,0005.47,0002.79,0002.42
2022-11-22 15:09:00,,0829.8,4.99,0.00,22.1,22.3,00.0,30.8,24.2,06.9,0000.0,0005.46,0002.78,0002.42
2022-11-22 15:10:00,,0829.7,4.99,0.00,22.2,22.1,00.0,30.9,24.2,07.0,0000.0,0004.34,0002.85,0002.45
2022-11-22 15:11:00,,0829.7,5.00,0.00,22.2,21.9,00.0,30.9,24.2,07.1,0000.0,0004.34,0002.89,0002.46
2022-11-22 15:12:00,,0829.6,5.00,0.00,22.2,21.7,00.0,31.0,24.2,07.3,0000.0,0004.37,0002.92,0002.47
2022-11-22 15:13:00,,0829.7,5.00,0.00,22.2,21.5,00.0,31.0,24.1,07.2,0000.0,0004.36,0002.93,0002.47
2022-11-22 15:14:00,,0829.6,5.00,0.00,22.2,21.4,00.0,31.0,24.1,07.2,0000.0,0004.28,0002.94,0002.48
2022-11-22 15:15:00,,0829.7,5.00,0.00,22.2,21.3,00.0,31.0,24.0,07.0,0000.0,0004.33,0002.98,0002.50
2022-11-22 15:16:00,,0829.7,5.00,0.00,22.2,21.2,00.0,31.0,24.0,07.0,0000.0,0004.25,0002.96,0002.49
2022-11-22 15:17:00,,0829.7,5.00,0.00,22.2,21.2,00.0,31.0,24.0,07.1,0000.0,0004.15,0002.93,0002.48
2022-11-22 15:18:00,,0829.7,5.00,0.00,22.2,21.1,00.0,31.0,23.9,07.0,0000.0,0004.18,0002.87,0002.47
2022-11-22 15:19:00,,0829.7,5.00,0.00,22.2,21.1,00.0,31.0,23.9,07.1,0000.0,0004.24,0002.82,0002.45
2022-11-22 15:20:00,,0829.7,5.01,0.00,22.2,21.0,00.0,31.1,24.0,07.0,0000.0,0004.21,0002.83,0002.48
2022-11-22 15:21:00,,0829.7,5.00,0.00,22.2,21.0,00.0,31.1,23.9,07.1,0000.0,0004.13,0002.84,0002.49
2022-11-22 15:22:00,,0829.7,5.00,0.00,22.2,21.0,00.0,31.1,24.0,07.1,0000.0,0004.07,0002.82,0002.50
2022-11-22 15:23:00,,0829.8,5.00,0.00,22.2,21.0,00.0,31.1,24.0,07.1,0000.0,0004.16,0002.86,0002.52
2022-11-22 15:24:00,,0829.8,5.00,0.00,22.2,21.0,00.0,31.1,24.0,07.1,0000.0,0004.19,0002.88,0002.54
2022-11-22 15:25:00,,0829.8,5.00,0.00,22.2,21.0,00.0,31.1,24.0,06.9,0000.0,0004.17,0002.87,0002.54
2022-11-22 15:26:00,,0829.8,5.00,0.00,22.2,21.0,00.0,31.1,24.0,06.9,0000.0,0004.14,0002.84,0002.54
2022-11-22 15:27:00,,0829.8,5.01,0.00,22.2,21.0,00.0,31.1,24.0,06.8,0000.0,0004.11,0002.83,0002.51
2022-11-22 15:28:00,,0829.8,5.00,0.00,22.2,21.0,00.0,31.1,23.9,06.7,0000.0,0004.06,0002.80,0002.47
2022-11-22 15:29:00,,0829.8,5.00,0.00,22.2,21.0,00.0,31.1,24.0,06.8,0000.0,0003.81,0002.77,0002.44
2022-11-22 15:30:00,,0829.8,5.00,0.00,22.2,21.0,00.0,31.1,24.0,06.7,0000.0,0003.82,0002.75,0002.42
2022-11-22 15:31:00,,0829.8,5.00,0.00,22.2,21.0,00.0,31.1,24.0,06.5,0000.0,0004.55,0002.74,0002.40
2022-11-22 15:32:00,,0829.8,5.00,0.00,22.2,21.0,00.0,31.1,24.0,06.6,0000.0,0005.20,0002.69,0002.37
2022-11-22 15:33:00,,0829.8,5.00,0.00,22.2,21.0,00.0,31.1,24.0,06.8,0000.0,0005.42,0002.69,0002.34
2022-11-22 15:34:00,,0829.8,5.00,0.00,22.2,21.0,00.0,31.1,24.0,06.8,0000.0,0005.68,0002.69,0002.31
2022-11-22 15:35:00,,0829.8,5.00,0.00,22.2,21.0,00.0,31.1,24.0,06.8,0000.0,0006.17,0002.71,0002.27
2022-11-22 15:36:00,,0829.8,5.00,0.00,22.2,21.0,00.0,31.1,23.9,06.8,0000.0,0006.39,0002.68,0002.24
2022-11-22 15:37:00,,0829.8,5.00,0.00,22.2,21.0,00.0,31.1,23.9,06.8,0000.0,0006.76,0002.65,0002.22
2022-11-22 15:38:00,,0829.8,5.00,0.00,22.2,21.0,00.0,31.1,23.9,06.8,0000.0,0006.74,0002.61,0002.21
2022-11-22 15:39:00,,0829.8,5.00,0.00,22.2,21.0,00.0,31.1,23.9,06.8,0000.0,0006.78,0002.62,0002.20
2022-11-22 15:40:00,,0829.8,5.00,0.00,22.2,21.0,00.0,31.1,23.9,06.9,0000.0,0006.80,0002.63,0002.21
2022-11-22 15:41:00,,0829.8,5.00,0.00,22.3,21.0,00.0,31.1,24.0,06.7,0000.0,0006.67,0002.63,0002.20
2022-11-22 15:42:00,,0829.8,4.99,0.00,22.3,21.0,00.0,31.1,24.0,06.9,0000.0,0005.78,0002.62,0002.18
2022-11-22 15:43:00,,0829.8,5.00,0.00,22.3,21.0,00.0,31.1,24.0,06.9,0000.0,0004.99,0002.60,0002.17
2022-11-22 15:44:00,,0829.8,4.99,0.00,22.3,21.0,00.0,31.1,24.0,06.9,0000.0,0004.81,0002.55,0002.15
2022-11-22 15:45:00,,0829.8,5.00,0.00,22.3,21.0,00.0,31.1,24.0,06.9,0000.0,0004.34,0002.47,0002.13
2022-11-22 15:46:00,,0829.8,5.00,0.00,22.3,21.1,00.0,31.2,24.0,06.7,0000.0,0003.82,0002.43,0002.15
2022-11-22 15:47:00,,0829.8,5.00,0.00,22.3,21.0,00.0,31.2,24.0,06.8,0000.0,0003.55,0002.41,0002.16
2022-11-22 15:48:00,,0829.8,5.00,0.00,22.3,21.1,00.0,31.2,24.0,06.6,0000.0,0003.22,0002.41,0002.15
2022-11-22 15:49:00,,0829.7,5.01,0.00,22.3,21.1,00.0,31.2,24.0,06.6,0000.0,0003.15,0002.38,0002.15
2022-11-22 15:50:00,,0829.7,5.00,0.00,22.3,21.1,00.0,31.2,24.0,06.7,0000.0,0003.11,0002.37,0002.16
2022-11-22 15:51:00,,0829.6,5.00,0.00,22.3,21.1,00.0,31.2,24.0,06.7,0000.0,0003.15,0002.38,0002.16
2022-11-22 15:52:00,,0829.6,5.00,0.00,22.3,21.1,00.0,31.2,24.0,06.5,0000.0,0003.28,0002.41,0002.17
2022-11-22 15:53:00,,0829.6,5.00,0.00,22.3,21.1,00.0,31.2,24.1,06.5,0000.0,0003.51,0002.45,0002.19
2022-11-22 15:54:00,,0829.6,5.00,0.00,22.3,21.1,00.0,31.2,24.1,06.4,0000.0,0003.70,0002.50,0002.22
2022-11-22 15:55:00,,0829.7,5.00,0.00,22.3,21.1,00.0,31.2,24.1,06.4,0000.0,0003.90,0002.60,0002.28
2022-11-22 15:56:00,,0829.7,5.00,0.00,22.3,21.2,00.0,31.2,24.1,06.7,0000.0,0004.26,0002.66,0002.32
2022-11-22 15:57:00,,0829.7,5.00,0.00,22.4,21.2,00.0,31.2,24.1,06.9,0000.0,0004.41,0002.67,0002.34
2022-11-22 15:58:00,,0829.7,5.00,0.00,22.4,21.2,00.0,31.2,24.1,07.9,0000.0,0004.43,0002.68,0002.34
2022-11-22 15:59:00,,0829.8,5.00,0.00,22.4,21.2,00.0,31.2,24.2,07.8,0000.0,0004.39,0002.70,0002.35
